Kuiper-00076

operational
NORAD ID: 64823 Int'l Des: 2025-151 Owner: KUIP Country: US Constellation: kuiper
LEOCIRCULAR

About Kuiper-00076

Description loading...

Live Position

Loading 3D Globe...

Upcoming Passes

Altitude History

Altitude vs Time

uPlot chart will show altitude changes over time

Two-Line Element Set

1 64823U 25151H 25312.48453998 .00004050 00000-0 55969-3 0 9996
2 64823 51.8994 109.0484 0003944 217.0296 143.0395 14.79959164 17462
Epoch: Nov 8, 2025 • Age: 40 hours

Current Status

Altitude 645.5 km
Velocity 7.54 km/s
Sub-Earth Point -51.47°S, 82.87°W
Launch Date Jul 16, 2025
Age 0.3 years
Type internet

Technical Details

Classification Payload
Mass 490.00 kg
Dry Mass 490.00 kg
Total Mass 490.00 kg
Length 1.80 m
Diameter 0.70 m
Span 5.00 m
Shape Box + 2 pan
Manufacturer KUIP
Bus Type Kuiper
Phase Status In Orbit
Owner/State KUIP/US

Large Constellations

Loading constellations...